Ludington, MI

6:53 AM EST on November 12, 2019 (GMT -0500)
Mason County

Weather History for KLDM - September, 2019

Change the Weather History Date:

Tuesday, September 10, 2019

  Actual Average Record
Temperature  
Mean Temperature 70 °F -  
Max Temperature 78 °F 73 °F 87 °F (1961)
Min Temperature 61 °F 53 °F 35 °F (2008)
Cooling Degree Days 4    
Growing Degree Days 20 (Base 50)    
Moisture  
Dew Point 65 °F    
Average Humidity 85    
Maximum Humidity 96    
Minimum Humidity 73    
Precipitation  
Precipitation 0.20 in - - ()
Sea Level Pressure  
Sea Level Pressure 30.04 in    
Wind  
Wind Speed 10 mph (SSW)    
Max Wind Speed 20 mph    
Max Gust Speed 28 mph    
Visibility 10 miles    
Events Rain    
Averages and records for this station are not official NWS values.
T = Trace of Precipitation, MM = Missing Value Source: NWS Daily Summary

Daily Weather History Graph

Daily Weather History Graph

Search for Another Location

Airport or City:

Astronomy

Sep. 10, 2019 Rise Set
Actual Time 7:18 AM EDT 8:05 PM EDT
Civil Twilight 6:49 AM EDT 8:34 PM EDT
Nautical Twilight 6:14 AM EDT 9:09 PM EDT
Astronomical Twilight 5:38 AM EDT 9:45 PM EDT
Moon 6:49 PM EDT (9/10) 3:35 AM EDT (9/10)
Length of Visible Light 13h 45m
Length of Day
12h 46m
Waxing Gibbous, 89% of the Moon is Illuminated
Sep 10
Waxing Gibbous
Sep 14
Full
Sep 21
Last Quarter
Sep 28
New
Oct 5
First Quarter

Hourly Weather History & Observations

Time (EDT) Temp. Dew Point Humidity Pressure Visibility Wind Dir Wind Speed Gust Speed Precip Events Conditions
12:17 AM 61.9 °F 56.1 °F 81% 30.09 in 10.0 mi SE 10.4 mph 16.1 mph N/A   Overcast
12:35 AM 62.4 °F 56.3 °F 80% 30.09 in 10.0 mi SE 11.5 mph 17.3 mph N/A   Overcast
12:55 AM 63.0 °F 56.8 °F 80% 30.08 in 10.0 mi SE 12.7 mph - N/A   Overcast
12:56 AM 63.0 °F 56.8 °F 80% 30.08 in 10.0 mi SE 11.5 mph - N/A   Overcast
1:15 AM 63.9 °F 57.2 °F 79% 30.07 in 10.0 mi SE 12.7 mph - N/A   Overcast
1:20 AM 63.9 °F 57.2 °F 79% 30.07 in 10.0 mi SE 11.5 mph - N/A   Overcast
1:38 AM 64.0 °F 57.6 °F 79% 30.07 in 10.0 mi SE 11.5 mph - N/A   Overcast
1:56 AM 63.9 °F 57.7 °F 80% 30.07 in 10.0 mi SE 10.4 mph - N/A   Overcast
2:15 AM 64.6 °F 58.3 °F 80% 30.07 in 10.0 mi SE 10.4 mph - N/A   Overcast
2:16 AM 64.6 °F 58.3 °F 80% 30.07 in 10.0 mi SSE 9.2 mph - N/A   Overcast
2:35 AM 65.3 °F 58.6 °F 79% 30.07 in 10.0 mi SE 10.4 mph 18.4 mph N/A   Overcast
2:59 AM 65.7 °F 59.2 °F 80% 30.05 in 10.0 mi SSE 10.4 mph 17.3 mph N/A   Overcast
3:17 AM 66.2 °F 59.5 °F 79% 30.06 in 10.0 mi SSE 6.9 mph 16.1 mph N/A   Overcast
3:35 AM 66.2 °F 59.9 °F 80% 30.04 in 10.0 mi SSE 8.1 mph - N/A   Overcast
3:55 AM 66.4 °F 60.3 °F 81% 30.05 in 10.0 mi SSE 6.9 mph - N/A Rain Light Rain
3:56 AM 66.2 °F 60.4 °F 82% 30.05 in 10.0 mi SSE 8.1 mph - N/A Rain Light Rain
4:15 AM 65.8 °F 60.8 °F 84% 30.06 in 10.0 mi SSW 4.6 mph - N/A   Overcast
4:20 AM 66.2 °F 61.0 °F 83% 30.07 in 10.0 mi Calm Calm - N/A   Overcast
4:38 AM 66.2 °F 61.3 °F 84% 30.06 in 10.0 mi SSW 3.5 mph - N/A   Overcast
4:56 AM 68.9 °F 62.4 °F 80% 30.06 in 10.0 mi SW 9.2 mph - N/A   Overcast
5:15 AM 68.4 °F 62.6 °F 82% 30.06 in 10.0 mi SSW 16.1 mph 23.0 mph N/A Rain Light Rain
5:16 AM 68.0 °F 62.6 °F 83% 30.05 in 10.0 mi SSW 16.1 mph 23.0 mph N/A Rain Light Rain
5:35 AM 66.2 °F 62.6 °F 88% 30.05 in 10.0 mi South 12.7 mph 20.7 mph N/A   Overcast
5:59 AM 66.2 °F 62.6 °F 88% 30.05 in 10.0 mi South 12.7 mph 17.3 mph N/A   Mostly Cloudy
6:17 AM 66.2 °F 63.1 °F 90% 30.05 in 10.0 mi South 9.2 mph - N/A   Mostly Cloudy
6:35 AM 66.6 °F 63.9 °F 91% 30.04 in 10.0 mi South 5.8 mph - N/A Rain Light Rain
6:36 AM 66.6 °F 63.9 °F 91% 30.04 in 10.0 mi South 5.8 mph - N/A Rain Light Rain
6:55 AM 66.6 °F 64.4 °F 93% 30.05 in 10.0 mi South 6.9 mph - N/A Rain Light Rain
6:56 AM 66.4 °F 64.4 °F 93% 30.05 in 10.0 mi South 8.1 mph - N/A Rain Light Rain
7:15 AM 66.2 °F 64.6 °F 94% 30.05 in 7.0 mi South 5.8 mph - 0.02 in Rain Rain
7:20 AM 66.2 °F 64.6 °F 94% 30.05 in 7.0 mi South 6.9 mph - 0.02 in Rain Rain
7:38 AM 66.2 °F 64.8 °F 95% 30.06 in 7.0 mi South 6.9 mph - 0.05 in Rain Rain
7:56 AM 67.1 °F 65.7 °F 95% 30.07 in 7.0 mi SSW 10.4 mph - 0.09 in Rain Rain
8:15 AM 67.3 °F 65.7 °F 95% 30.06 in 10.0 mi SSW 10.4 mph - 0.01 in Rain Light Rain
8:16 AM 67.3 °F 65.7 °F 95% 30.06 in 10.0 mi SSW 10.4 mph - 0.01 in Rain Light Rain
8:35 AM 67.1 °F 65.3 °F 94% 30.05 in 10.0 mi SSW 10.4 mph - 0.01 in Rain Light Rain
8:36 AM 67.1 °F 65.3 °F 94% 30.06 in 10.0 mi South 10.4 mph - 0.01 in Rain Light Rain
9:17 AM 67.1 °F 65.5 °F 95% 30.05 in 10.0 mi South 8.1 mph - 0.02 in Rain Rain
9:35 AM 67.3 °F 66.2 °F 96% 30.03 in 10.0 mi SE 6.9 mph - 0.03 in Rain Light Rain
9:36 AM 67.5 °F 66.2 °F 96% 30.03 in 10.0 mi SSE 8.1 mph - 0.03 in Rain Light Rain
10:00 AM 67.5 °F 66.2 °F 96% 30.06 in 4.0 mi SSE 5.8 mph - 0.01 in Rain Heavy Rain
10:18 AM 67.3 °F 66.2 °F 96% 30.07 in 7.0 mi South 5.8 mph - 0.03 in Rain Rain
10:36 AM 67.5 °F 66.2 °F 96% 30.08 in 10.0 mi Calm Calm - 0.04 in   Overcast
10:55 AM 67.6 °F 66.2 °F 95% 30.07 in 5.0 mi SSE 3.5 mph - 0.07 in   Overcast
11:15 AM 68.0 °F 66.6 °F 95% 30.06 in 10.0 mi SSE 4.6 mph - N/A Rain Light Rain
11:38 AM 68.0 °F 66.6 °F 95% 30.07 in 10.0 mi SSE 5.8 mph - N/A   Overcast
11:57 AM 68.9 °F 66.9 °F 93% 30.07 in 10.0 mi SSW 5.8 mph - N/A   Overcast
12:15 PM 69.8 °F 67.6 °F 93% 30.05 in 10.0 mi South 8.1 mph - N/A   Overcast
12:16 PM 70.0 °F 67.6 °F 92% 30.05 in 10.0 mi South 9.2 mph - N/A   Overcast
12:35 PM 71.8 °F 68.2 °F 88% 30.03 in 10.0 mi South 8.1 mph - N/A   Mostly Cloudy
12:36 PM 71.8 °F 68.2 °F 88% 30.03 in 10.0 mi South 9.2 mph - N/A   Mostly Cloudy
12:55 PM 73.8 °F 68.7 °F 84% 30.02 in 10.0 mi South 9.2 mph - N/A   Scattered Clouds
1:00 PM 73.9 °F 68.9 °F 84% 30.02 in 10.0 mi South 10.4 mph 18.4 mph N/A   Scattered Clouds
1:18 PM 75.2 °F 69.4 °F 82% 30.01 in 10.0 mi SSW 13.8 mph 24.2 mph N/A   Clear
1:36 PM 76.1 °F 68.0 °F 76% 29.99 in 10.0 mi South 18.4 mph 27.6 mph N/A   Clear
1:55 PM 77.9 °F 68.5 °F 73% 29.99 in 10.0 mi South 18.4 mph 25.3 mph N/A   Clear
2:15 PM 77.0 °F 67.8 °F 73% 29.99 in 10.0 mi SSW 18.4 mph 27.6 mph N/A   Clear
2:16 PM 77.0 °F 67.8 °F 73% 29.99 in 10.0 mi SSW 16.1 mph 27.6 mph N/A   Clear
2:39 PM 75.7 °F 67.8 °F 76% 29.99 in 10.0 mi SSW 19.6 mph 24.2 mph N/A   Clear
2:57 PM 75.6 °F 67.5 °F 76% 29.99 in 10.0 mi SSW 15.0 mph 21.9 mph N/A   Clear
3:15 PM 76.3 °F 67.1 °F 73% 30.00 in 10.0 mi SSW 15.0 mph 21.9 mph N/A   Scattered Clouds
3:16 PM 76.3 °F 67.1 °F 73% 30.00 in 10.0 mi SSW 13.8 mph 21.9 mph N/A   Scattered Clouds
3:35 PM 75.0 °F 66.2 °F 74% 30.00 in 10.0 mi SSW 17.3 mph 23.0 mph N/A   Clear
3:36 PM 74.8 °F 66.2 °F 74% 30.00 in 10.0 mi SSW 17.3 mph 23.0 mph N/A   Clear
3:55 PM 73.9 °F 66.2 °F 77% 30.01 in 10.0 mi SSW 17.3 mph 23.0 mph N/A   Mostly Cloudy
4:00 PM 73.9 °F 66.0 °F 76% 30.02 in 10.0 mi SSW 12.7 mph 23.0 mph N/A   Mostly Cloudy
4:18 PM 73.6 °F 66.6 °F 79% 30.02 in 10.0 mi SSW 15.0 mph 18.4 mph N/A   Light Drizzle
4:36 PM 73.6 °F 66.9 °F 80% 30.00 in 10.0 mi SSW 13.8 mph 20.7 mph N/A   Overcast
4:55 PM 74.3 °F 67.1 °F 78% 30.01 in 10.0 mi SSW 13.8 mph 17.3 mph N/A   Overcast
5:15 PM 75.9 °F 67.8 °F 76% 30.01 in 10.0 mi SSW 12.7 mph 17.3 mph N/A   Overcast
5:16 PM 76.1 °F 67.8 °F 75% 30.01 in 10.0 mi SSW 12.7 mph 17.3 mph N/A   Overcast
5:39 PM 78.1 °F 68.9 °F 73% 30.01 in 10.0 mi SSW 11.5 mph 19.6 mph N/A   Mostly Cloudy
5:57 PM 76.5 °F 68.9 °F 77% 30.00 in 10.0 mi SW 10.4 mph - N/A   Scattered Clouds
6:15 PM 75.4 °F 68.4 °F 79% 30.00 in 10.0 mi SW 13.8 mph - N/A   Clear
6:35 PM 74.1 °F 68.2 °F 82% 30.00 in 10.0 mi SW 12.7 mph - N/A   Clear
6:55 PM 73.9 °F 68.2 °F 82% 30.00 in 5.0 mi SW 12.7 mph 17.3 mph N/A   Haze
7:18 PM 73.4 °F 68.0 °F 83% 30.00 in 7.0 mi SW 10.4 mph - N/A   Clear
7:36 PM 73.4 °F 68.2 °F 84% 30.00 in 10.0 mi SW 10.4 mph - N/A   Clear
7:55 PM 73.4 °F 67.3 °F 81% 30.00 in 7.0 mi SW 9.2 mph - N/A   Clear
7:56 PM 73.4 °F 67.3 °F 81% 30.00 in 7.0 mi SW 9.2 mph - N/A   Clear
8:15 PM 73.9 °F 67.1 °F 79% 30.00 in 10.0 mi SW 10.4 mph - N/A   Clear
8:39 PM 73.4 °F 67.1 °F 81% 30.01 in 10.0 mi SW 9.2 mph - N/A   Clear
8:57 PM 72.7 °F 68.0 °F 85% 30.02 in 7.0 mi WSW 9.2 mph - N/A   Clear
9:15 PM 72.5 °F 68.0 °F 86% 30.02 in 10.0 mi SW 9.2 mph - N/A   Clear
9:16 PM 72.5 °F 68.0 °F 86% 30.02 in 10.0 mi SW 9.2 mph - N/A   Clear
9:35 PM 71.6 °F 68.0 °F 88% 30.03 in 10.0 mi SW 8.1 mph - N/A   Clear
9:36 PM 71.6 °F 68.0 °F 88% 30.03 in 10.0 mi SW 6.9 mph - N/A   Clear
9:55 PM 70.7 °F 67.6 °F 90% 30.03 in 10.0 mi WSW 5.8 mph - N/A   Clear
10:00 PM 70.7 °F 67.8 °F 91% 30.03 in 10.0 mi WSW 5.8 mph - N/A   Clear
10:18 PM 70.7 °F 67.6 °F 90% 30.03 in 10.0 mi WSW 4.6 mph - N/A   Clear
10:36 PM 70.5 °F 67.5 °F 90% 30.04 in 10.0 mi WSW 5.8 mph - N/A   Clear
10:55 PM 69.8 °F 67.1 °F 91% 30.04 in 10.0 mi West 4.6 mph - N/A   Clear
10:56 PM 69.8 °F 67.1 °F 91% 30.04 in 10.0 mi West 3.5 mph - N/A   Clear
11:15 PM 68.9 °F 67.1 °F 94% 30.04 in 10.0 mi WSW 3.5 mph - N/A   Clear
11:16 PM 68.9 °F 67.1 °F 94% 30.04 in 10.0 mi West 3.5 mph - N/A   Clear
11:39 PM 68.2 °F 66.6 °F 95% 30.05 in 7.0 mi Calm Calm - N/A   Clear
11:57 PM 66.7 °F 65.5 °F 96% 30.05 in 7.0 mi WSW 4.6 mph - N/A   Clear